{"data":{"norad_id":52888,"epoch":"2026-09-20T02:30:09.734112Z","epoch_age_seconds":48528,"freshness":"FRESH","line1":"1 52888U 22064A   26263.10427933 -.00000100  00000+0  22131-4 0  9997","line2":"2 52888  51.9982 133.4845 0000764  96.1318 263.9635 12.62263142203121","mean_motion":12.62263142,"eccentricity":7.64e-5,"inclination_deg":51.9982,"raan_deg":133.4845,"arg_perigee_deg":96.1318,"mean_anomaly_deg":263.9635,"bstar":2.2131e-5,"rev_number":20312,"period_min":114.08080867499,"perigee_km":1413.0218539544,"apogee_km":1414.2124339876,"semimajor_km":7791.754143971,"source":"CELESTRAK","updated_at":"2026-09-20T09:00:45.042040Z"}}